This demonstration page uses our WeatherBlox Daily Observations layout. Learn more.

Left ArrowRight Arrow

34.16533, -84.80231

Hourly Observations for March 18, 2020

Temp ( °F °C ) Dew Point ( °F °C ) Humidity (%) Winds ( mph kmh ) Pressure ( in mb ) Visibility ( mi km ) Precip ( " mm )
12:53 am 00:53 Clear with Mist and Fog 54 12.2 52 11.1 93 93 Calm 30.23 1024 5 8 0.00 0.00
1:28 am 01:28 Mostly Clear with Mist and Fog 53 11.7 51 10.6 93 93 Calm 30.26 1025 6 10 0.00 0.00
1:53 am 01:53 Clear with Mist and Fog 52 11.1 50 10 93 93 Calm 30.23 1024 6 10 0.00 0.00
2:53 am 02:53 Clear with Mist and Fog 52 11.1 50 10 93 93 Calm 30.21 1023 5 8 0.00 0.00
3:53 am 03:53 Clear with Mist and Fog 52 11.1 49 9.4 89 89 Calm 30.21 1023 6 10 0.00 0.00
4:44 am 04:44 Cloudy with Mist and Fog 53 11.7 51 10.6 93 93 Calm 30.24 1024 6 10 0.00 0.00
4:53 am 04:53 Mostly Cloudy with Mist and Fog 53 11.7 51 10.6 93 93 Calm 30.22 1023 6 10 0.00 0.00
5:53 am 05:53 Clear with Mist and Fog 52 11.1 50 10 93 93 E 3 6 30.20 1023 5 8 0.00 0.00
6:53 am 06:53 Partly Cloudy with Mist and Fog 57 13.9 54 12.2 90 90 Calm 30.21 1023 6 10 0.00 0.00
7:53 am 07:53 Partly Cloudy with Mist and Fog 57 13.9 54 12.2 90 90 ESE 3 6 30.23 1024 6 10 0.00 0.00
8:53 am 08:53 Mostly Cloudy 59 15 56 13.3 90 90 E 5 7 30.25 1024 8 13 0.00 0.00
9:53 am 09:53 Cloudy 62 16.7 57 13.9 84 84 ESE 6 9 30.26 1025 8 13 0.00 0.00
10:28 am 10:28 Cloudy 64 17.8 58 14.4 81 81 ESE 9 15 30.28 1025 8 13 0.00 0.00
10:38 am 10:38 Cloudy 64 17.8 58 14.4 81 81 ESE 8 13 30.27 1025 8 13 0.00 0.00
10:51 am 10:51 Cloudy 64 18 59 15 83 83 ESE 9 15 30.27 1025 8 13 0.00 0.00
10:53 am 10:53 Cloudy 65 18.3 59 15 81 81 ESE 10 17 30.26 1025 8 13 0.00 0.00
11:34 am 11:34 Cloudy 68 20 61 16.1 78 78 SSE 9 15 30.27 1025 9 14 0.00 0.00
12:53 pm 12:53 Mostly Cloudy 70 21.1 61 16.1 73 73 SE 9 15 30.25 1025 9 14 0.00 0.00
1:53 pm 13:53 Cloudy 70 21.1 61 16.1 73 73 SE 7 11 30.23 1024 9 14 0.00 0.00
2:53 pm 14:53 Cloudy 72 22.2 62 16.7 71 71 SSE 6 9 30.21 1023 10 16 0.00 0.00
3:08 pm 15:08 Partly Cloudy 75 23.9 63 17.2 66 66 SE 9 15 30.19 1022 10 16 0.00 0.00
3:53 pm 15:53 Mostly Cloudy 75 23.9 62 16.7 64 64 E 8 13 30.18 1022 10 16 0.00 0.00
4:53 pm 16:53 Mostly Cloudy 74 23.3 62 16.7 67 67 SSE 5 7 30.17 1022 10 16 0.00 0.00
5:53 pm 17:53 Mostly Cloudy 73 22.8 62 16.7 69 69 E 7 11 30.17 1022 10 16 0.00 0.00
6:53 pm 18:53 Cloudy 71 21.7 62 16.7 73 73 E 5 7 30.18 1022 10 16 0.00 0.00
7:53 pm 19:53 Mostly Clear 69 20.6 61 16.1 76 76 E 5 7 30.19 1022 10 16 0.00 0.00
8:53 pm 20:53 Clear 67 19.4 60 15.6 79 79 ESE 6 9 30.19 1022 10 16 0.00 0.00
9:53 pm 21:53 Clear 65 18.3 59 15 81 81 E 5 7 30.20 1023 10 16 0.00 0.00
10:53 pm 22:53 Clear 63 17.2 58 14.4 84 84 E 6 9 30.22 1023 9 14 0.00 0.00
11:53 pm 23:53 Clear 63 17.2 58 14.4 84 84 SE 6 9 30.22 1023 8 13 0.00 0.00

Powered by AerisWeather